{"data":{"norad_id":64446,"epoch":"2026-09-20T23:18:43.566912Z","epoch_age_seconds":93448,"freshness":"FRESH","line1":"1 64446U 25130J   26263.97133758  .00010643  00000+0  32568-3 0  9997","line2":"2 64446  53.1584 259.2041 0001673  83.5467 276.5727 15.34399515 70632","mean_motion":15.34399515,"eccentricity":0.0001673,"inclination_deg":53.1584,"raan_deg":259.2041,"arg_perigee_deg":83.5467,"mean_anomaly_deg":276.5727,"bstar":0.00032568,"rev_number":7063,"period_min":93.847787745162,"perigee_km":461.56020891634,"apogee_km":463.84915454305,"semimajor_km":6840.8416817297,"source":"CELESTRAK","updated_at":"2026-09-21T09:00:35.353585Z"}}